Tracking 35280 objects as of 7-Sep-2026
HD Live streaming from Space Station
objects crossing your sky now

GLOBALSTAR M077

Track GLOBALSTAR M077 now!
10-day predictions
GLOBALSTAR M077 is classified as:


NORAD ID: 37191
Int'l Code: 2010-054D
Launch date: October 19, 2010
Source: Globalstar (GLOB)
Launch site: TYURATAM MISSILE AND SPACE COMPLEX (TTMTR)
Your satellite tracking list
Your tracking list is empty




NASA's NSSDC Master Catalog

Two Line Element Set (TLE):
1 37191U 10054D   26249.73769098 -.00000064  00000-0  25793-3 0  9993
2 37191  51.9990 332.3104 0002400 330.1256 204.3334 11.67548054730660
Source of the keplerian elements: AFSPC